Time,TemperatureF,DewpointF,PressureIn,WindDirection,WindDirectionDegrees,WindSpeedMPH,WindSpeedGustMPH,Humidity,HourlyPrecipIn,Conditions,Clouds,dailyrainin,SoftwareType,DateUTC
2013-03-09 00:05:00,38.9,38.9,30.17,ENE,69,0.0,0.0,100,0.00,,,0.00,Wunderground v.1.15,2013-03-09 08:05:00,
2013-03-09 00:35:00,39.1,39.1,30.18,SE,143,0.0,0.0,100,0.00,,,0.00,Wunderground v.1.15,2013-03-09 08:35:00,
2013-03-09 01:05:00,39.1,39.1,30.19,NE,52,0.0,0.0,100,0.00,,,0.00,Wunderground v.1.15,2013-03-09 09:05:00,
2013-03-09 01:35:00,38.6,38.6,30.21,ENE,72,0.0,0.0,100,0.00,,,0.00,Wunderground v.1.15,2013-03-09 09:35:00,
2013-03-09 02:05:00,38.5,38.5,30.22,ENE,72,0.0,0.0,100,0.00,,,0.00,Wunderground v.1.15,2013-03-09 10:05:00,
2013-03-09 02:35:00,38.3,38.3,30.22,NE,56,0.0,0.0,100,0.00,,,0.00,Wunderground v.1.15,2013-03-09 10:35:00,
2013-03-09 03:05:00,38.0,38.0,30.23,NE,56,0.0,0.0,100,0.00,,,0.00,Wunderground v.1.15,2013-03-09 11:05:00,
2013-03-09 03:35:00,37.6,37.6,30.24,ENE,58,0.0,2.0,100,0.00,,,0.00,Wunderground v.1.15,2013-03-09 11:35:00,
2013-03-09 04:05:00,37.5,37.5,30.22,East,83,0.0,0.0,100,0.00,,,0.00,Wunderground v.1.15,2013-03-09 12:05:00,
2013-03-09 04:35:00,37.0,37.0,30.24,ENE,66,0.0,0.0,100,0.00,,,0.00,Wunderground v.1.15,2013-03-09 12:35:00,
2013-03-09 05:05:00,36.2,36.2,30.27,East,85,0.0,0.0,100,0.00,,,0.00,Wunderground v.1.15,2013-03-09 13:05:00,
2013-03-09 05:35:00,35.3,35.3,30.27,East,85,0.0,0.0,100,0.00,,,0.00,Wunderground v.1.15,2013-03-09 13:35:00,
2013-03-09 06:05:00,34.9,34.9,30.29,East,85,0.0,0.0,100,0.00,,,0.00,Wunderground v.1.15,2013-03-09 14:05:00,
2013-03-09 06:35:00,34.4,34.4,30.31,East,85,0.0,0.0,100,0.00,,,0.00,Wunderground v.1.15,2013-03-09 14:35:00,
2013-03-09 07:05:00,35.2,35.2,30.32,ESE,121,0.0,0.0,100,0.00,,,0.00,Wunderground v.1.15,2013-03-09 15:05:00,
2013-03-09 07:35:00,38.2,38.2,30.34,SE,128,0.0,0.0,100,0.00,,,0.00,Wunderground v.1.15,2013-03-09 15:35:00,
2013-03-09 08:05:00,39.6,39.6,30.35,NE,44,0.0,1.0,100,0.00,,,0.00,Wunderground v.1.15,2013-03-09 16:05:00,
2013-03-09 08:35:00,42.2,42.2,30.36,ENE,73,0.0,0.0,100,0.00,,,0.00,Wunderground v.1.15,2013-03-09 16:35:00,
2013-03-09 09:05:00,46.0,46.0,30.35,ENE,69,0.0,0.0,100,0.00,,,0.00,Wunderground v.1.15,2013-03-09 17:05:00,
2013-03-09 09:35:00,48.6,48.1,30.36,East,96,0.0,0.0,98,0.00,,,0.00,Wunderground v.1.15,2013-03-09 17:35:00,
2013-03-09 10:05:00,51.7,48.3,30.36,ENE,71,0.0,0.0,88,0.00,,,0.00,Wunderground v.1.15,2013-03-09 18:05:00,
2013-03-09 10:35:00,51.9,49.1,30.38,ENE,76,0.0,0.0,90,0.00,,,0.00,Wunderground v.1.15,2013-03-09 18:35:00,
2013-03-09 11:05:00,52.6,50.0,30.39,ESE,113,0.0,0.0,91,0.00,,,0.00,Wunderground v.1.15,2013-03-09 19:05:00,
2013-03-09 11:35:00,52.8,49.3,30.38,ESE,107,0.0,0.0,88,0.00,,,0.00,Wunderground v.1.15,2013-03-09 19:35:00,
2013-03-09 12:05:00,54.1,50.6,30.39,ESE,106,0.0,0.0,88,0.00,,,0.00,Wunderground v.1.15,2013-03-09 20:05:00,
2013-03-09 12:35:00,54.2,50.7,30.39,ESE,116,0.0,0.0,88,0.00,,,0.00,Wunderground v.1.15,2013-03-09 20:35:00,
2013-03-09 13:05:00,55.9,51.5,30.38,SE,130,0.0,0.0,85,0.00,,,0.00,Wunderground v.1.15,2013-03-09 21:05:00,
2013-03-09 13:35:00,56.6,51.2,30.38,SSW,208,0.0,0.0,82,0.00,,,0.00,Wunderground v.1.15,2013-03-09 21:35:00,
2013-03-09 14:05:00,59.0,48.8,30.38,SSW,208,0.0,0.0,69,0.00,,,0.00,Wunderground v.1.15,2013-03-09 22:05:00,
2013-03-09 14:35:00,58.4,50.1,30.38,SSW,206,0.0,0.0,74,0.00,,,0.00,Wunderground v.1.15,2013-03-09 22:35:00,
2013-03-09 15:05:00,59.2,48.6,30.38,SSW,199,0.0,0.0,68,0.00,,,0.00,Wunderground v.1.15,2013-03-09 23:05:00,
2013-03-09 15:35:00,60.1,47.5,30.38,SSW,199,0.0,0.0,63,0.00,,,0.00,Wunderground v.1.15,2013-03-09 23:35:00,
2013-03-09 16:05:00,60.1,47.0,30.38,WSW,253,0.0,0.0,62,0.00,,,0.00,Wunderground v.1.15,2013-03-10 00:05:00,
2013-03-09 16:35:00,56.7,47.4,30.38,WSW,253,0.0,0.0,71,0.00,,,0.00,Wunderground v.1.15,2013-03-10 00:35:00,
2013-03-09 17:05:00,53.2,46.5,30.38,WSW,250,0.0,0.0,78,0.00,,,0.00,Wunderground v.1.15,2013-03-10 01:05:00,
2013-03-09 17:35:00,52.0,46.0,30.39,WSW,250,0.0,0.0,80,0.00,,,0.00,Wunderground v.1.15,2013-03-10 01:35:00,
2013-03-09 18:05:00,50.5,47.7,30.40,WSW,250,0.0,0.0,90,0.00,,,0.00,Wunderground v.1.15,2013-03-10 02:05:00,
2013-03-09 18:35:00,48.5,47.4,30.41,WSW,250,0.0,0.0,96,0.00,,,0.00,Wunderground v.1.15,2013-03-10 02:35:00,
2013-03-09 19:05:00,46.7,46.4,30.42,WSW,250,0.0,0.0,99,0.00,,,0.00,Wunderground v.1.15,2013-03-10 03:05:00,
2013-03-09 19:35:00,45.4,45.4,30.44,WSW,250,0.0,0.0,100,0.00,,,0.00,Wunderground v.1.15,2013-03-10 03:35:00,
2013-03-09 20:05:00,44.1,44.1,30.43,WSW,250,0.0,0.0,100,0.00,,,0.00,Wunderground v.1.15,2013-03-10 04:05:00,
2013-03-09 20:35:00,43.3,43.3,30.42,East,83,0.0,0.0,100,0.00,,,0.00,Wunderground v.1.15,2013-03-10 04:35:00,
2013-03-09 21:05:00,42.8,42.8,30.42,ENE,69,0.0,0.0,100,0.00,,,0.00,Wunderground v.1.15,2013-03-10 05:05:00,
2013-03-09 21:35:00,41.5,41.5,30.44,ENE,69,0.0,0.0,100,0.00,,,0.00,Wunderground v.1.15,2013-03-10 05:35:00,
2013-03-09 22:05:00,40.2,40.2,30.45,ENE,69,0.0,0.0,100,0.00,,,0.00,Wunderground v.1.15,2013-03-10 06:05:00,
2013-03-09 22:35:00,38.9,38.9,30.45,ENE,69,0.0,0.0,100,0.00,,,0.00,Wunderground v.1.15,2013-03-10 06:35:00,
2013-03-09 23:05:00,37.9,37.9,30.45,ENE,69,0.0,0.0,100,0.00,,,0.00,Wunderground v.1.15,2013-03-10 07:05:00,
2013-03-09 23:35:00,38.3,38.3,30.43,South,189,0.0,0.0,100,0.00,,,0.00,Wunderground v.1.15,2013-03-10 07:35:00,